Theta_e
320 320 320 320 320 320 320 320 320 320 320 321 321 321 321 321 322 321 321 321 321 321 320 320 321 321 321 321 322 322 321 318 319 320 322 326 340 355 353 350 352 353 353 326 317 319 323 328 329 332 329 327 329 335 342 339 342 341 326 319 315 318 320 324 326 325 330 326 330 334 333 333 330 336 339 344 339 334 331 333 330 331 333 336 337 339 340 341
320 319 319 319 319 319 319 320 320 320 320 321 320 321 321 321 321 321 321 321 321 320 320 320 320 321 320 321 322 323 320 318 318 319 319 340 354 354 353 353 350 347 347 316 315 319 323 328 330 330 327 323 341 336 341 335 347 330 326 323 314 320 323 331 332 330 328 328 333 335 335 332 334 335 337 332 328 331 330 328 328 330 332 335 337 338 339 340
319 319 319 319 319 319 320 320 320 320 320 320 320 320 320 320 321 321 321 321 320 320 320 320 320 320 321 321 322 323 319 319 322 320 326 347 353 352 346 355 351 352 320 312 315 320 326 328 327 325 321 319 336 334 336 334 337 332 326 320 321 329 330 338 339 338 340 338 334 334 336 336 337 335 345 333 326 333 327 324 327 327 328 331 334 336 338 338
319 319 319 320 319 319 319 319 319 319 319 319 319 320 320 320 320 320 320 320 320 320 320 320 320 320 321 322 323 321 319 320 318 320 324 346 346 351 341 344 350 349 329 319 317 317 321 324 321 321 319 317 324 332 329 333 329 332 326 321 325 331 328 336 342 343 343 343 337 335 335 333 338 338 339 337 325 328 328 329 328 327 329 331 334 335 337 336
320 319 319 319 319 319 319 319 319 319 319 319 319 320 320 320 320 320 320 320 320 320 320 320 320 320 321 322 322 321 319 313 315 324 341 347 351 343 350 348 351 335 322 318 318 319 321 322 320 318 316 311 322 331 327 333 333 329 324 329 332 331 330 340 343 345 343 343 336 332 328 332 341 340 338 335 324 320 329 331 331 331 332 332 333 335 336 336
320 320 320 319 319 319 319 318 318 318 319 319 319 319 319 319 319 319 319 319 319 319 319 320 320 321 322 322 320 319 319 303 323 320 342 349 341 352 348 350 349 338 323 318 317 320 320 317 315 314 314 315 320 321 327 331 334 322 328 331 333 333 331 338 342 347 343 340 334 330 336 338 337 337 339 337 335 337 340 334 333 333 334 335 335 335 335 335
320 320 320 319 319 318 318 318 318 318 318 319 319 319 319 319 319 318 318 318 318 319 320 319 320 321 322 321 320 318 318 319 325 325 348 350 353 342 350 349 344 323 322 323 324 321 319 314 312 311 313 317 322 322 324 327 331 327 322 329 334 338 333 337 338 341 339 338 338 342 340 335 334 331 342 337 340 346 342 334 334 334 335 335 334 335 335 335
320 320 319 319 319 318 318 318 318 318 318 318 318 319 319 319 318 318 319 319 319 319 320 320 320 321 321 320 320 320 318 318 322 330 344 351 350 338 342 328 324 321 320 321 321 318 316 311 309 313 313 314 320 321 323 321 323 324 324 332 334 334 335 337 337 336 338 336 339 341 335 335 335 336 339 336 340 341 343 337 334 335 334 334 334 334 334 334
319 319 319 319 319 319 318 318 318 318 318 318 318 318 318 318 318 318 319 319 319 320 320 320 320 321 322 319 319 316 317 325 325 325 342 338 335 328 326 320 322 320 318 319 319 317 314 310 311 314 310 315 321 319 320 316 315 327 330 333 334 334 336 337 337 337 339 338 337 335 335 337 338 341 336 338 339 343 340 332 333 333 333 332 333 333 333 333
319 319 319 318 319 318 318 318 318 318 318 318 317 317 317 318 318 318 319 319 319 319 320 320 321 322 319 319 322 313 320 328 324 324 327 324 325 321 321 321 321 318 316 317 317 315 312 312 311 313 314 318 321 318 320 317 316 334 332 334 333 332 333 336 336 336 336 335 338 333 329 330 335 336 325 338 341 342 338 333 332 331 330 331 331 332 333 333
319 319 318 318 318 318 318 318 317 318 317 317 317 316 317 317 318 318 319 319 319 319 320 321 321 321 319 323 315 311 327 326 324 324 325 327 324 319 318 318 320 319 317 314 312 314 315 314 315 315 314 315 319 316 314 321 325 332 335 335 334 336 337 338 336 333 333 328 333 335 328 331 333 332 329 333 344 344 338 330 329 329 329 329 330 331 332 333
318 318 318 318 317 317 317 317 317 317 316 316 316 316 317 317 318 318 319 319 320 321 321 322 322 320 321 320 318 320 323 325 326 326 325 325 323 322 322 321 320 319 317 314 313 315 316 315 315 312 306 319 313 318 313 317 319 332 336 328 332 335 333 337 334 332 333 329 333 334 328 324 325 326 337 341 344 340 340 336 329 329 328 328 330 331 332 333
318 318 318 317 317 317 317 317 317 317 316 315 316 316 317 317 318 318 320 320 321 322 322 322 321 321 320 317 323 330 324 323 324 327 326 323 323 322 322 321 319 318 317 315 313 315 315 314 314 309 313 315 317 311 317 318 315 320 324 327 326 324 324 335 338 335 333 333 334 333 313 317 322 328 336 342 341 340 338 336 328 328 328 329 330 330 331 333
317 318 317 317 317 317 317 317 317 316 316 316 315 316 316 316 317 319 321 322 324 322 323 323 322 322 321 319 325 322 325 322 325 324 319 324 321 321 319 318 318 316 317 315 315 315 315 314 313 311 315 314 314 322 315 313 314 309 325 327 319 316 315 331 336 335 330 333 330 330 313 316 324 329 336 341 342 337 336 337 327 328 327 328 329 330 330 331
317 317 317 317 317 317 317 317 316 315 316 315 314 315 316 316 318 320 322 324 324 323 323 323 322 320 321 324 332 333 358 323 320 318 320 320 319 317 317 315 314 315 315 315 314 315 316 314 314 311 309 318 319 315 308 307 308 309 312 311 318 314 316 328 337 333 327 331 334 329 315 317 324 329 336 341 339 338 335 337 327 327 327 329 329 329 329 330
316 316 316 316 316 316 316 316 316 316 315 315 314 314 316 316 319 321 324 325 324 324 321 320 321 321 319 317 320 343 320 314 316 321 320 321 319 316 317 313 314 313 313 313 315 315 314 313 309 311 313 315 311 307 306 305 302 306 309 313 312 315 317 321 332 335 336 331 334 328 315 320 322 329 334 341 338 338 334 336 332 327 327 329 328 329 329 330
316 316 316 316 316 316 316 316 316 316 315 314 314 314 316 318 321 324 327 326 324 323 323 321 324 325 316 318 331 315 315 317 319 317 319 318 316 317 318 313 311 310 311 312 313 313 311 311 314 312 314 307 308 308 301 299 302 312 317 310 315 314 317 314 329 335 334 332 325 329 322 322 325 329 333 339 338 334 333 336 335 327 327 328 328 328 328 329
316 316 316 316 316 316 316 316 316 315 314 314 314 314 314 319 322 322 324 323 326 324 321 324 321 318 314 324 315 313 316 316 317 317 318 316 317 318 314 311 312 310 309 308 310 307 310 306 311 302 305 306 306 302 298 297 304 306 309 309 312 318 317 319 320 327 330 331 324 325 322 323 324 330 333 334 338 336 333 336 335 328 328 329 329 328 329 329
316 316 316 316 315 316 316 316 315 314 314 314 315 319 320 320 319 317 320 325 319 321 313 316 315 305 302 313 318 318 315 314 318 318 313 313 315 315 316 316 313 309 304 303 304 306 308 305 307 301 297 299 303 304 302 305 312 310 311 309 313 311 313 317 325 331 328 322 320 321 318 321 324 326 328 332 336 333 334 335 334 334 327 329 330 328 328 328
316 316 315 315 315 315 316 315 314 313 313 312 312 318 327 326 321 316 325 324 318 313 314 317 321 320 316 315 312 315 318 317 311 314 316 320 313 313 312 313 311 310 305 301 304 305 309 298 296 297 300 303 306 308 308 310 311 314 312 311 310 314 317 324 326 330 330 322 319 320 322 323 323 324 325 328 331 331 332 332 333 334 332 329 329 330 328 329
316 315 315 314 314 315 315 314 313 312 312 311 311 314 311 313 306 305 310 314 321 321 319 320 319 314 311 313 316 314 309 311 314 313 314 318 314 312 308 309 306 302 303 307 306 309 308 298 298 303 305 306 307 310 312 311 314 313 310 309 306 316 314 321 323 328 329 322 319 323 322 321 322 325 327 329 329 327 328 331 334 333 330 330 329 333 330 331
316 315 315 314 314 314 314 314 313 312 311 310 315 310 313 316 316 316 312 306 314 317 321 321 317 313 317 315 316 317 316 309 310 313 314 315 312 306 307 306 304 300 305 307 307 303 299 298 303 307 309 309 309 309 311 310 308 307 303 304 303 311 319 321 324 327 328 324 317 321 319 321 323 326 327 326 327 329 331 333 336 334 332 332 331 332 333 333
316 315 315 315 314 313 313 313 312 310 310 316 317 319 320 320 320 323 317 311 310 317 316 313 312 313 313 318 317 317 309 308 306 311 312 314 309 309 308 303 302 303 305 306 301 300 297 300 305 308 307 307 306 307 307 308 308 303 300 299 299 312 315 310 320 325 327 323 317 319 317 319 324 327 327 328 329 331 335 340 338 338 334 333 333 333 331 331
316 316 315 314 314 313 313 312 311 312 313 312 312 311 317 321 321 321 314 306 307 313 316 315 314 313 313 311 317 314 311 312 311 308 317 313 307 311 307 306 304 303 300 304 303 300 299 305 309 307 306 305 302 303 303 302 301 305 304 300 300 308 315 317 316 323 327 327 324 319 315 315 322 322 324 329 334 335 335 335 334 335 338 338 337 332 332 334
315 315 315 314 314 313 311 310 311 319 315 314 316 320 321 325 325 321 312 308 308 309 320 316 315 316 314 321 316 309 312 312 312 313 315 313 311 309 307 311 306 300 303 305 305 301 302 308 307 305 304 305 303 300 301 302 299 299 303 303 303 304 314 319 320 319 314 313 320 318 305 306 316 322 323 328 328 329 330 328 329 331 332 334 335 333 335 334
315 315 315 315 314 311 310 309 318 316 312 311 317 321 328 324 324 325 314 303 297 309 312 305 314 308 319 311 315 313 314 306 313 315 318 314 317 310 310 306 308 300 305 304 304 302 302 308 307 303 303 302 303 300 301 304 296 296 298 305 305 305 306 315 318 315 307 305 316 321 305 302 314 317 321 325 327 329 332 328 331 332 332 334 334 335 334 335
315 315 314 314 313 311 310 309 317 316 309 314 318 319 321 323 327 322 308 300 296 309 305 310 309 309 315 313 313 315 298 301 314 315 313 319 311 316 306 304 307 308 308 308 305 297 305 305 305 305 304 301 299 296 301 302 298 295 304 305 305 305 305 305 306 304 301 317 319 319 313 305 304 315 320 325 325 325 326 330 331 333 333 334 332 335 337 337
315 314 313 312 311 310 309 312 312 314 312 314 317 318 320 324 322 320 309 294 294 311 306 307 311 318 315 312 315 307 308 316 305 310 315 314 314 311 308 306 305 306 308 302 293 303 306 305 305 304 302 299 297 303 303 304 299 298 304 305 304 304 305 305 303 300 303 303 306 312 316 307 305 313 321 323 318 320 322 326 328 331 335 336 334 333 337 338
314 313 313 312 310 310 312 311 315 313 317 319 319 318 320 320 316 308 302 292 307 307 317 306 317 314 311 313 310 310 309 312 304 311 315 315 315 313 303 307 308 307 308 306 298 304 308 307 306 306 303 300 305 306 305 306 299 304 305 306 306 306 307 305 301 299 302 296 295 306 312 306 305 312 313 321 320 319 323 326 327 329 332 337 337 338 340 340
313 313 312 311 311 316 315 314 312 320 322 323 322 318 318 316 310 302 297 291 310 300 308 306 306 304 309 305 305 309 306 309 311 313 313 309 310 312 311 314 308 306 304 307 305 306 307 317 314 310 304 307 306 307 308 306 305 307 304 303 302 302 301 301 302 302 297 292 294 302 308 310 301 308 310 313 315 321 323 328 329 330 333 336 338 339 340 342
312 311 311 310 309 317 314 310 315 322 322 321 322 320 315 313 304 297 292 302 310 306 310 305 304 309 305 303 300 307 308 308 308 309 305 312 307 309 309 305 310 303 301 301 301 305 307 307 307 307 311 308 308 305 310 309 307 304 303 298 299 297 301 302 302 304 294 290 298 303 305 313 299 305 314 320 326 326 325 324 326 326 329 331 335 339 340 340
310 310 310 310 313 315 312 311 317 320 318 318 319 312 308 298 303 293 295 311 297 301 302 302 306 305 304 306 304 304 303 307 308 306 303 303 303 301 301 297 304 297 294 296 296 303 301 302 305 306 319 309 306 302 300 305 305 303 298 297 295 293 295 293 296 292 291 291 299 304 313 309 308 312 317 322 325 327 329 330 327 328 329 331 333 337 339 340
309 309 309 311 313 311 313 316 319 319 319 319 315 310 304 297 292 298 298 303 298 305 303 307 304 304 305 303 302 306 307 301 307 306 307 307 304 304 308 305 306 301 292 300 299 297 298 305 305 306 308 309 307 298 297 296 299 300 297 298 294 292 291 289 292 296 295 300 304 305 315 306 312 316 322 321 325 329 331 333 333 334 333 334 336 338 339 339
308 309 309 316 314 315 319 323 323 324 321 319 316 306 302 294 294 309 303 304 304 307 306 304 305 305 304 298 302 305 298 305 305 304 306 303 304 301 304 307 307 303 301 300 296 298 292 294 300 305 299 306 305 303 304 301 300 299 305 300 297 297 297 290 293 291 294 295 305 313 308 303 305 307 323 326 329 329 332 333 334 334 334 336 337 338 338 340
308 309 313 317 318 319 318 321 323 324 320 312 306 301 295 293 299 299 301 305 307 308 307 307 305 302 301 301 304 306 304 300 305 304 302 300 297 300 301 302 306 307 304 295 302 301 300 297 303 308 305 306 306 309 310 306 302 303 305 304 299 297 303 293 297 297 296 297 300 307 304 311 310 321 325 328 327 330 332 332 333 333 335 338 336 337 338 342
310 321 325 325 324 326 323 323 323 322 316 308 302 297 294 299 297 304 303 310 308 304 304 304 303 298 297 298 303 303 305 301 303 303 301 301 302 301 306 305 304 306 301 297 301 295 299 295 306 307 309 306 307 310 308 311 295 300 302 298 300 306 303 299 303 301 302 298 301 310 307 312 319 317 323 325 326 327 330 331 330 331 333 334 334 335 337 340
316 320 319 322 324 329 328 326 324 319 312 305 301 295 301 303 306 305 311 307 307 306 304 298 297 297 297 296 299 302 302 303 303 301 297 304 299 305 306 305 308 308 307 303 299 305 295 296 305 306 304 308 311 311 308 308 308 302 296 299 306 308 307 300 294 295 293 289 299 307 304 305 306 301 318 319 318 324 325 327 330 330 331 331 332 333 334 339
314 318 321 322 326 326 329 326 319 314 308 303 297 305 307 302 309 308 311 310 310 310 303 302 302 303 299 298 297 301 302 298 299 301 297 301 297 307 305 303 308 308 306 307 300 301 301 293 300 306 306 308 312 309 305 308 311 302 299 308 300 294 294 302 300 290 290 290 297 304 305 306 307 304 313 314 315 317 319 323 324 325 326 328 330 332 334 337
316 318 318 328 331 328 323 321 314 309 306 298 298 299 304 305 309 308 310 310 310 308 301 304 300 302 300 297 301 303 302 296 300 299 298 299 297 304 304 306 305 307 307 308 300 301 304 296 296 307 304 307 308 302 295 298 305 307 307 302 306 301 301 297 299 297 295 291 294 295 304 300 309 309 313 313 317 319 320 321 321 324 324 327 327 331 332 336
318 312 310 330 325 324 321 316 308 308 301 295 297 299 306 303 306 309 310 310 308 306 305 303 305 299 302 302 303 303 303 302 300 299 300 300 299 306 304 309 305 306 307 308 303 308 298 302 292 299 309 304 296 301 299 301 297 299 300 298 301 303 305 302 302 298 296 292 291 296 296 302 310 317 317 318 320 320 320 322 323 325 327 328 330 332 335 334
317 311 312 324 322 320 317 311 305 300 298 300 302 301 304 303 306 308 310 312 311 314 307 305 303 299 301 300 300 305 302 302 302 299 302 301 301 298 307 308 308 304 307 307 302 302 300 299 296 297 298 297 300 307 306 306 305 306 300 301 301 298 296 293 292 303 301 294 289 293 296 304 314 324 322 320 322 322 324 324 324 327 328 329 332 334 334 335
315 307 312 322 320 318 311 302 302 305 300 298 298 302 301 313 305 306 309 311 310 308 314 308 307 304 303 302 302 302 302 301 302 301 303 299 303 302 306 309 307 308 302 299 300 306 306 305 301 294 296 298 303 307 309 308 308 306 304 300 302 300 300 296 287 295 300 299 302 302 299 301 318 323 322 321 323 324 326 325 325 328 328 330 332 334 335 335
314 312 321 326 321 317 308 304 305 302 299 302 306 305 306 306 305 307 306 309 309 310 309 307 306 304 306 304 304 302 303 300 302 301 302 303 303 305 307 307 308 307 305 300 304 303 320 300 296 297 302 304 306 308 308 309 307 304 305 305 301 298 302 300 299 301 296 299 295 296 296 301 317 323 323 323 324 325 325 326 326 327 328 330 331 332 333 333
310 310 313 323 322 318 307 299 300 300 300 304 304 303 307 306 306 305 306 308 308 308 306 308 307 307 304 307 304 301 304 298 304 303 301 305 301 308 307 307 308 303 304 303 302 303 299 302 297 292 293 295 298 302 302 307 308 303 299 302 304 303 306 304 304 305 296 300 299 294 292 298 316 324 324 324 325 324 325 327 327 325 327 328 330 331 333 333
310 315 315 318 321 316 305 306 303 302 302 302 302 301 303 305 307 307 307 307 310 309 309 306 307 308 305 307 304 304 305 302 303 305 305 304 303 309 307 307 308 309 313 315 326 309 304 303 299 293 289 288 287 288 292 296 299 302 304 303 306 306 304 302 297 299 291 301 303 297 298 307 316 321 321 322 324 324 325 326 327 327 326 327 328 329 329 329
309 304 312 314 315 313 311 312 309 305 303 304 303 304 305 304 307 309 309 308 310 310 309 308 309 308 305 305 302 302 302 306 302 305 304 301 303 306 307 308 311 312 323 328 315 310 305 306 302 300 296 293 296 299 306 307 303 299 302 303 304 305 307 306 302 297 293 298 301 305 305 307 312 315 316 320 321 322 323 324 325 325 327 328 329 328 328 329
313 307 309 307 312 310 308 309 307 307 302 306 301 305 304 306 308 309 310 305 310 309 309 308 307 305 304 303 302 301 303 303 306 305 304 305 305 305 309 309 310 318 327 312 314 305 303 299 302 301 300 300 301 302 304 306 301 302 301 301 301 302 303 303 298 297 304 298 294 306 309 308 309 315 317 318 320 321 322 323 324 324 325 325 326 327 328 328
305 314 315 315 305 303 305 306 309 307 307 306 303 306 304 304 306 304 309 310 309 311 304 310 307 307 306 304 304 301 302 302 303 302 307 306 303 305 303 307 307 320 314 308 309 304 303 297 300 300 298 300 301 302 302 301 301 301 300 300 299 299 300 301 305 306 309 301 298 308 310 309 310 316 319 320 321 321 323 323 324 325 325 325 325 325 325 326
312 315 316 319 309 311 310 311 313 311 308 307 306 305 303 304 303 307 306 307 307 307 308 300 303 305 306 307 305 306 306 302 299 304 307 308 304 305 305 304 307 308 306 307 306 308 303 296 301 300 299 301 302 303 304 303 303 303 302 301 300 301 301 301 304 306 310 308 309 311 312 312 315 318 320 321 323 323 324 325 324 323 322 323 323 323 323 324
311 313 311 316 315 312 312 311 311 310 307 312 311 309 307 305 304 306 308 307 306 304 308 304 304 306 306 306 308 305 308 306 309 305 308 304 306 309 305 307 302 307 306 305 307 308 300 302 306 302 299 299 302 304 303 302 301 299 301 301 301 302 300 302 302 310 311 310 311 312 313 312 318 321 322 324 324 324 323 323 324 323 322 322 322 323 324 324
318 322 320 312 308 312 314 312 309 308 306 310 308 309 309 308 306 309 307 310 307 307 306 304 307 307 307 306 306 305 307 306 312 307 310 309 305 309 303 310 307 303 305 305 305 309 303 302 304 301 296 296 300 299 300 302 301 299 301 301 300 299 297 301 303 310 309 307 310 309 307 310 316 322 323 323 322 322 321 321 321 320 322 321 320 321 322 324
320 323 322 315 307 314 309 311 310 307 303 309 308 308 308 308 310 311 306 311 311 310 309 309 309 307 306 306 305 307 309 309 308 309 310 309 309 311 307 308 307 307 305 307 306 301 302 301 297 299 293 294 300 301 299 300 300 297 301 303 304 304 303 307 308 311 311 311 307 304 307 316 319 322 319 320 321 320 320 321 319 320 320 320 320 320 320 323
Wind_Speed
14 14 14 13 13 13 13 12 12 12 13 13 13 13 13 13 13 14 14 14 15 15 15 14 14 14 15 16 15 15 14 8 10 3 7 11 5 4 6 5 8 7 6 1 3 5 8 10 12 12 10 8 4 4 3 5 3 0 1 2 0 1 1 4 4 4 1 4 2 5 1 5 3 1 1 2 3 5 7 6 5 13 11 14 14 14 14 12
15 14 14 14 14 14 14 14 14 14 13 13 13 13 13 13 13 13 14 14 14 15 15 14 14 14 14 14 14 15 13 7 6 9 14 2 2 7 5 6 7 6 4 3 7 9 9 10 13 13 11 6 9 2 4 3 4 3 2 1 4 3 2 3 3 3 3 2 4 3 2 4 2 3 1 1 1 2 4 7 9 13 17 16 16 15 13 13
15 15 15 14 14 15 15 14 14 14 14 14 14 14 14 14 13 14 14 14 14 14 14 14 14 13 13 13 13 13 9 7 7 8 10 12 8 5 4 5 5 6 5 3 6 9 10 11 11 7 3 4 9 4 5 3 6 5 2 2 2 2 3 3 2 2 1 4 4 3 2 2 2 2 4 1 2 1 3 10 15 15 16 17 16 14 14 12
15 15 15 14 15 15 15 15 15 15 15 15 15 15 15 14 14 14 14 14 14 14 14 14 13 12 12 13 13 10 6 5 2 1 3 4 6 5 5 5 4 5 2 5 7 9 10 13 10 8 5 5 3 8 6 5 6 3 2 4 4 3 4 1 1 2 2 2 2 3 2 2 4 4 3 3 3 1 6 11 13 15 16 16 15 15 13 13
16 16 16 16 16 16 16 16 16 16 15 15 15 15 15 16 15 15 15 14 14 13 13 13 13 12 12 11 12 7 6 1 3 3 5 7 6 6 4 3 3 3 5 4 6 10 11 12 10 6 5 4 4 13 6 12 10 5 5 4 6 3 2 4 2 5 2 5 6 2 3 2 1 3 2 3 3 3 3 8 14 15 15 16 15 14 12 13
15 16 16 16 16 16 16 16 16 16 16 16 16 16 16 15 16 15 15 14 13 13 13 12 12 11 12 10 7 6 2 4 1 2 7 6 6 5 4 3 4 2 2 6 6 7 10 8 8 4 3 6 5 7 11 13 17 5 1 7 6 5 7 5 3 3 4 2 3 1 1 2 1 1 2 5 2 1 3 9 14 14 15 14 12 13 13 13
16 16 16 16 16 16 16 16 16 16 16 16 16 16 16 16 16 15 14 14 13 12 11 11 11 11 11 11 5 2 3 6 1 3 9 5 5 5 6 5 5 2 2 5 8 7 6 10 7 7 7 8 7 7 6 11 20 8 6 8 10 12 10 4 3 5 7 7 3 0 3 1 1 0 1 4 4 3 6 5 13 15 15 13 13 12 13 12
15 16 16 16 17 17 17 17 17 16 16 16 16 17 17 17 16 15 14 13 12 11 10 10 9 10 10 6 2 2 3 5 3 5 7 5 5 5 5 3 5 3 5 7 7 8 9 8 8 6 6 7 6 7 4 6 7 11 5 11 11 13 2 5 4 4 5 4 1 4 2 0 2 3 2 5 5 7 6 5 15 15 14 12 13 13 13 12
16 16 16 16 17 17 16 16 17 17 17 16 17 17 17 17 16 15 14 12 12 10 10 9 8 8 6 3 2 6 1 5 7 8 7 5 6 6 5 3 6 5 4 7 9 11 8 5 8 5 5 9 8 11 6 6 4 11 13 9 12 8 6 5 7 4 4 1 3 3 2 2 3 8 3 5 6 4 9 7 14 14 14 12 13 12 12 11
17 17 16 17 17 17 17 17 18 18 18 18 17 18 17 17 16 14 13 12 10 9 8 8 7 7 5 3 3 3 1 8 9 8 10 8 7 7 6 6 5 7 6 8 9 9 7 6 8 8 9 8 7 9 8 2 6 17 16 14 14 7 6 4 6 3 3 3 2 2 1 3 4 4 4 4 4 6 9 7 12 14 13 12 10 11 9 9
18 18 18 18 17 17 18 18 19 18 19 19 18 18 17 17 15 14 12 11 9 8 7 8 6 5 3 3 2 4 2 4 6 8 12 10 8 7 6 7 7 7 10 9 9 8 7 7 7 5 4 3 11 8 5 6 3 15 19 14 12 8 7 7 9 4 1 3 3 2 1 5 4 2 5 2 5 6 8 5 12 13 10 10 11 9 8 6
19 19 19 19 19 19 19 19 19 20 20 20 19 17 17 15 15 13 11 9 9 7 7 5 4 4 4 2 4 6 4 3 6 9 7 6 7 7 7 8 9 9 6 7 8 7 5 7 6 4 3 8 4 11 5 11 5 17 18 11 6 8 6 6 10 6 2 1 3 5 3 2 3 5 2 4 5 8 7 7 14 11 9 9 10 8 5 6
19 19 19 19 20 20 20 20 20 20 21 20 19 19 17 15 14 13 9 8 6 7 6 4 4 4 3 2 6 11 7 1 1 4 2 4 4 6 7 5 4 4 6 7 7 8 9 6 4 5 4 5 7 4 6 13 10 4 7 10 5 3 3 3 5 9 6 4 8 6 4 7 11 8 3 3 5 7 6 8 12 9 8 8 9 8 4 8
20 19 20 20 20 21 21 20 21 21 21 21 19 20 18 15 14 13 9 8 7 7 5 4 4 3 2 6 4 3 2 4 4 2 5 4 5 7 6 5 5 4 3 6 7 6 8 6 6 6 3 6 5 5 8 5 4 2 11 4 5 4 1 2 3 9 6 6 11 7 4 4 7 8 3 3 3 5 6 10 10 9 7 8 8 7 5 8
19 20 20 21 21 21 20 21 21 22 22 21 20 22 20 15 12 12 10 7 7 6 6 4 4 2 2 5 8 3 2 1 3 5 5 8 8 3 7 4 5 5 5 4 4 4 5 6 6 3 3 5 8 7 6 6 5 5 7 2 0 5 2 3 3 5 6 5 8 7 4 5 6 6 2 3 4 4 7 10 5 8 7 9 8 8 5 6
19 20 20 21 21 21 21 20 18 18 21 21 21 24 23 15 10 9 9 7 3 4 4 3 5 4 4 7 1 1 2 3 7 8 6 4 6 6 5 5 3 4 4 5 4 4 6 6 5 2 4 6 7 3 7 7 6 6 3 4 3 3 3 2 2 3 5 9 8 7 1 3 2 6 4 1 2 3 6 8 5 9 9 9 8 6 5 8
18 19 20 21 22 22 22 18 19 20 19 20 22 24 19 13 7 7 6 4 4 4 4 2 2 5 3 2 0 1 4 7 3 3 4 5 4 5 1 3 3 5 5 5 5 3 5 5 2 3 2 4 4 5 4 6 8 2 4 4 7 7 5 2 2 2 6 8 5 6 3 4 2 7 3 0 2 4 5 7 8 6 5 8 7 7 5 8
18 17 18 19 22 22 22 18 17 21 19 19 21 21 17 13 5 7 6 4 4 5 6 5 6 4 8 8 7 4 2 5 3 5 5 3 6 2 5 3 3 3 5 4 4 6 3 3 2 4 2 5 5 7 5 6 2 3 4 3 2 8 9 8 6 6 6 2 6 4 1 1 5 5 5 2 1 2 6 6 7 2 7 6 6 7 7 8
18 18 18 19 20 22 20 20 18 20 20 23 22 23 13 8 3 4 3 3 2 0 1 3 4 4 2 5 10 1 2 5 4 2 5 4 4 5 3 5 4 3 3 3 2 8 3 3 3 3 6 6 8 10 9 11 5 4 5 4 7 7 6 7 5 7 9 8 5 4 4 6 9 6 4 3 4 4 5 5 2 7 4 5 4 6 7 5
19 19 18 19 19 21 19 21 17 16 19 15 10 6 0 1 1 1 2 4 6 11 11 6 10 5 9 6 5 3 3 6 3 5 7 2 2 4 6 4 4 3 4 4 5 9 4 5 5 7 9 10 12 13 12 7 9 9 5 8 5 9 6 7 8 9 10 6 2 7 5 5 7 6 3 4 4 3 3 3 3 2 3 4 6 4 8 6
18 19 19 19 19 21 20 21 17 14 12 6 7 2 4 7 7 3 2 6 12 13 13 15 10 8 6 4 2 5 3 4 6 8 6 5 4 3 5 5 3 5 7 9 6 5 8 5 7 11 14 15 12 10 9 6 2 3 3 5 3 10 8 10 9 12 9 4 2 6 8 5 5 5 4 3 3 4 3 2 2 1 1 2 4 1 6 6
19 18 19 20 20 21 22 22 20 13 11 4 2 3 6 8 1 2 3 6 9 11 16 19 9 5 3 6 4 2 1 3 8 5 4 3 4 4 3 5 6 8 9 9 6 3 5 8 11 14 13 7 7 3 2 5 6 6 5 3 3 7 11 10 9 13 8 3 4 5 8 5 5 4 5 5 4 2 2 2 0 3 0 2 8 5 2 5
19 19 20 21 21 22 23 24 21 19 3 4 2 6 6 5 3 5 3 4 10 12 8 8 5 4 6 3 3 3 5 6 5 6 3 3 3 8 4 5 7 8 7 7 4 7 5 7 9 3 4 5 10 8 8 6 4 5 4 5 1 9 12 4 6 12 8 3 8 5 5 4 4 3 4 4 4 2 1 0 1 2 2 2 3 2 6 7
19 19 20 20 22 23 24 24 24 4 5 7 8 11 13 9 4 5 5 2 6 10 10 5 5 8 7 2 4 3 5 2 4 8 6 4 4 5 7 6 8 6 6 7 4 2 6 7 2 3 5 8 7 6 8 3 2 2 7 4 6 9 9 12 9 11 7 4 12 9 5 1 2 4 1 1 1 0 3 4 3 3 4 5 7 6 3 4
19 20 19 21 22 23 26 22 7 1 7 6 10 13 15 4 4 3 4 3 3 6 10 8 5 1 4 1 7 2 5 5 3 7 4 4 7 6 5 3 3 6 10 6 5 4 7 1 4 5 4 2 4 3 5 3 4 6 6 8 7 7 13 14 12 12 4 4 7 15 4 2 3 3 4 0 1 2 3 3 3 3 3 6 10 11 14 11
20 19 20 18 22 23 26 2 1 7 10 8 8 3 3 6 4 4 2 2 5 4 4 5 3 3 2 4 3 6 4 2 4 3 3 6 5 4 4 6 3 5 7 3 1 1 1 4 4 1 1 5 1 4 4 3 6 4 3 6 4 7 5 15 23 12 7 7 11 10 6 1 2 3 1 1 1 2 2 2 3 4 3 3 5 3 2 3
20 19 18 17 17 19 11 1 7 11 7 5 11 15 7 4 5 4 1 2 4 3 6 3 4 1 1 4 5 4 2 4 3 2 2 2 3 3 5 8 2 4 4 2 0 2 4 3 1 2 1 4 4 5 4 4 4 2 4 10 8 7 2 7 7 6 6 5 5 11 2 6 4 1 3 2 2 1 2 3 4 4 5 1 4 0 2 2
19 19 19 19 16 7 6 7 10 7 8 10 10 13 10 7 8 1 1 3 2 2 5 2 2 2 2 6 2 3 2 1 3 4 5 5 2 3 4 9 8 8 3 4 3 1 2 2 4 3 5 4 4 2 3 4 1 2 9 9 8 8 7 6 4 3 2 8 4 6 9 6 1 3 0 1 5 2 5 3 5 5 2 2 1 3 5 3
19 19 18 18 22 18 6 5 4 7 6 9 12 11 9 7 4 2 1 3 2 2 3 6 2 1 2 4 2 4 3 6 6 3 1 1 5 1 2 6 7 12 8 1 1 2 2 4 3 4 2 0 3 6 2 3 2 3 6 4 4 4 2 3 1 4 3 4 2 10 10 6 2 2 3 0 2 5 5 6 8 7 5 2 2 4 4 4
20 18 16 16 16 3 2 5 7 10 10 12 12 12 12 6 3 0 1 4 2 3 4 3 1 6 4 5 5 8 9 5 3 2 3 1 5 3 4 6 7 9 3 3 5 7 3 2 3 0 2 1 1 3 2 2 4 3 4 3 4 3 3 4 2 1 4 3 4 7 9 11 3 5 4 3 4 3 5 3 5 5 5 5 4 5 5 4
21 18 14 10 3 4 6 7 10 7 5 7 9 6 4 2 1 2 2 1 2 2 4 4 6 9 6 6 4 7 6 8 5 3 4 1 4 6 3 5 2 3 3 5 6 7 5 5 1 1 3 4 2 5 0 1 4 4 0 2 1 5 2 1 2 2 2 5 6 7 2 11 7 2 3 3 1 4 5 5 8 9 9 9 7 6 6 7
22 21 15 6 7 5 5 5 3 9 11 11 10 5 2 2 2 2 4 2 4 2 3 5 6 5 9 6 7 7 4 9 3 4 4 4 3 4 5 5 2 2 4 6 7 6 5 7 4 5 1 3 1 2 2 4 3 2 4 3 1 2 2 2 1 3 4 7 5 10 16 9 7 2 5 6 4 2 2 1 6 8 7 7 9 8 7 7
25 23 24 13 10 7 11 16 9 11 11 10 5 3 1 2 3 7 7 3 2 3 1 4 8 5 6 7 6 11 5 2 8 7 8 6 6 8 9 9 7 4 2 2 4 5 2 5 7 4 3 4 2 2 2 2 5 4 4 3 3 1 2 2 3 2 3 5 9 7 17 8 2 3 3 6 2 3 4 1 2 0 2 5 6 7 7 6
26 24 10 5 9 12 8 5 7 9 8 4 3 2 2 2 5 6 11 8 5 3 5 2 7 3 3 3 4 3 2 4 6 3 7 2 8 8 8 12 9 3 3 4 4 3 2 2 4 7 2 4 4 5 1 2 3 5 5 2 3 0 2 2 1 3 1 2 9 7 5 3 5 3 2 3 5 6 4 2 0 1 2 3 4 6 7 6
29 22 10 6 7 11 14 11 7 7 5 4 2 3 4 6 4 5 6 8 6 9 3 7 1 5 6 4 7 4 2 2 5 6 6 2 4 4 5 4 6 1 4 5 3 3 2 5 3 6 6 4 4 1 1 4 6 5 2 2 1 4 3 2 2 1 3 2 5 7 3 1 2 3 2 0 2 4 4 2 1 0 1 2 3 2 3 1
18 6 5 5 5 6 11 8 9 8 4 3 2 4 8 6 5 5 4 7 5 6 2 9 3 3 3 4 4 3 6 2 6 3 1 5 5 3 5 4 2 2 2 2 2 3 7 6 1 7 8 7 2 2 3 1 2 5 6 1 5 8 4 1 2 2 2 4 4 2 5 4 3 4 2 1 3 2 2 3 3 3 5 5 5 6 6 4
6 9 5 5 9 7 9 9 7 6 4 3 3 6 6 8 12 13 6 8 7 5 3 2 3 3 3 5 3 6 3 0 2 2 3 2 3 4 1 6 6 1 3 2 3 0 3 3 6 4 1 3 5 0 4 6 2 3 1 3 8 4 4 3 1 2 2 5 3 6 5 4 1 2 4 5 2 4 7 7 6 6 7 8 7 5 4 5
8 7 9 12 14 7 11 9 8 4 4 3 6 6 4 11 10 12 9 15 14 14 7 2 0 2 1 3 3 7 7 3 5 4 4 7 2 3 5 4 2 3 3 3 1 2 5 4 2 5 4 7 3 0 2 3 1 2 5 5 2 4 5 4 1 2 2 3 3 4 3 5 3 4 2 8 11 11 12 12 11 14 12 9 9 10 10 8
5 4 7 8 7 9 11 10 6 4 3 4 5 4 7 12 13 13 13 15 13 10 2 2 2 3 3 4 4 8 9 5 4 5 2 2 1 2 2 3 2 4 3 2 1 2 2 1 4 2 4 6 4 4 1 4 6 5 4 6 4 2 1 1 2 2 4 1 5 1 1 1 3 3 4 3 5 7 8 8 7 6 5 4 4 2 5 4
5 4 6 2 11 10 8 8 4 3 3 6 5 8 4 9 11 12 13 13 9 2 2 6 3 4 5 5 6 0 7 7 8 3 3 6 4 2 3 2 5 3 4 2 2 1 3 2 2 3 1 3 2 1 2 3 3 1 1 2 2 1 2 3 2 2 2 2 4 6 2 2 4 2 3 3 4 2 2 5 6 4 3 2 2 4 3 4
5 3 4 7 9 9 7 4 3 5 6 4 7 9 11 10 10 11 15 11 7 2 5 5 7 5 7 9 9 2 2 7 2 2 1 8 6 1 2 2 3 4 1 1 3 3 3 3 2 5 7 5 5 1 3 6 3 0 2 1 3 7 8 5 6 4 2 5 0 4 3 1 2 1 3 1 1 2 1 1 3 2 2 1 1 3 5 4
3 4 3 9 10 9 7 5 4 4 3 7 7 8 9 8 12 14 14 13 13 2 2 6 5 4 4 5 6 6 5 3 2 6 2 5 4 4 1 6 8 2 3 1 2 3 1 1 0 4 3 5 12 5 7 4 6 6 6 4 5 1 3 2 2 5 3 3 5 9 7 3 2 1 1 2 2 1 1 1 3 2 3 5 2 1 3 5
4 8 14 2 10 9 6 4 4 4 7 7 9 14 13 12 11 11 13 11 6 7 5 4 5 4 4 4 4 6 7 4 7 1 10 10 6 4 6 10 7 6 4 5 4 5 7 2 5 5 3 4 9 8 5 5 4 4 2 2 3 2 3 3 2 2 2 3 4 3 4 2 2 3 4 4 2 1 1 2 4 5 4 4 4 4 5 6
6 7 8 5 10 7 5 5 4 6 6 10 12 13 10 11 11 12 11 9 6 5 5 2 4 4 8 4 6 6 5 4 3 5 4 4 6 6 9 9 4 2 3 2 2 2 2 2 3 3 3 3 5 5 3 4 2 2 1 2 7 7 5 4 3 4 5 5 3 4 4 3 3 4 5 4 3 2 2 3 5 6 4 6 8 8 8 8
6 6 8 7 6 5 8 5 6 6 7 11 11 13 12 10 9 14 13 12 7 6 2 2 5 3 4 3 7 7 4 5 2 3 3 7 4 3 9 9 7 9 6 6 6 1 1 2 3 2 2 3 2 3 4 5 4 3 2 4 7 3 5 5 5 3 4 4 4 4 2 2 4 3 3 3 6 5 2 1 3 6 6 7 8 8 9 7
3 4 4 3 4 5 7 7 8 8 8 7 8 8 9 9 7 11 9 8 10 10 7 11 7 11 9 4 5 5 6 3 3 0 3 4 6 4 7 9 11 6 6 5 4 3 1 2 3 1 1 1 3 4 7 6 5 3 5 9 6 7 6 8 5 3 2 1 6 1 9 8 6 6 4 2 3 4 3 3 4 5 7 7 7 6 5 5
5 4 3 4 2 7 7 6 8 8 8 5 4 5 10 10 7 10 9 6 5 8 8 6 9 6 5 5 7 5 5 9 4 4 4 3 5 6 3 8 11 8 8 1 5 2 1 0 3 7 6 5 6 7 7 9 7 4 4 3 8 5 5 4 3 2 6 5 4 1 10 9 7 7 6 5 4 4 4 3 4 6 7 7 6 5 7 6
3 3 7 4 4 1 5 6 9 9 10 8 7 7 11 11 9 8 2 5 6 2 7 1 8 8 10 7 6 4 5 6 5 5 2 3 7 3 4 5 4 5 7 1 5 2 1 1 2 7 7 9 9 9 6 5 6 5 7 7 8 7 8 3 3 3 7 4 6 3 5 7 5 6 6 4 4 5 6 5 4 6 7 7 6 6 7 6
5 6 7 13 7 7 8 13 14 10 9 8 2 9 10 10 11 7 7 4 7 4 3 7 10 11 12 11 5 1 3 1 5 6 2 1 3 3 2 5 6 6 3 1 1 1 1 3 3 4 8 8 10 9 17 19 3 2 2 3 3 3 5 4 2 7 12 8 9 8 9 6 6 8 7 5 5 7 6 3 4 5 7 7 6 4 4 4
5 8 8 10 9 8 9 10 10 10 8 4 1 4 8 8 10 8 8 5 1 7 5 7 11 13 13 14 7 3 1 4 1 3 4 7 2 2 3 2 3 1 4 3 2 2 2 1 3 2 3 6 8 14 6 7 4 5 5 6 3 1 6 2 3 12 15 8 8 10 11 7 3 7 8 5 5 5 5 5 6 4 5 6 5 4 2 3
7 5 4 7 8 5 9 9 6 6 5 4 3 6 8 9 11 8 8 5 8 3 8 8 9 13 14 12 7 6 6 6 4 8 3 3 2 2 2 1 4 5 5 4 3 1 3 1 0 1 2 3 6 8 5 3 6 5 3 2 3 6 9 2 3 1 6 7 8 6 8 5 4 5 8 7 6 6 6 4 3 3 5 5 4 3 4 4
7 7 6 4 4 5 9 8 7 6 6 4 5 8 7 10 10 8 8 6 11 7 4 8 10 12 8 8 8 8 8 11 11 6 3 2 4 0 2 3 2 2 3 1 5 5 3 3 2 1 3 4 7 9 9 10 2 0 1 5 7 6 6 9 5 7 7 7 6 6 2 7 7 7 7 5 7 6 5 4 4 5 4 5 6 4 3 3
Wind_Direction
351 351 348 347 345 343 340 339 335 332 328 326 322 320 317 317 315 313 314 313 313 313 316 318 320 321 321 321 321 320 322 319 313 281 219 241 255 150 163 142 152 171 170 228 243 237 249 235 222 220 230 225 128 94 200 221 120 112 134 153 210 192 205 181 176 196 78 144 151 63 132 65 115 202 268 358 294 153 146 174 141 140 142 125 124 127 136 134
351 348 347 345 344 342 340 337 335 332 330 326 323 319 317 314 313 311 310 311 312 312 314 317 319 319 320 320 319 321 322 291 279 268 245 289 173 172 175 163 161 174 159 219 219 223 243 239 219 210 214 222 112 150 151 165 124 128 243 112 199 146 231 160 211 202 144 159 118 129 162 120 207 1 216 145 327 189 173 175 123 97 106 116 126 133 136 139
348 347 345 344 342 341 340 338 335 331 330 326 324 322 318 314 312 311 310 309 310 311 312 314 317 319 317 317 316 320 325 303 255 249 255 197 168 181 170 152 175 162 185 209 219 236 249 292 310 303 254 242 141 189 180 152 171 242 137 195 243 138 141 183 236 98 45 110 107 109 14 319 254 84 335 144 207 294 99 105 107 117 123 130 134 141 142 151
348 345 344 343 342 341 338 337 334 331 329 327 324 322 319 317 314 312 310 309 309 309 311 312 314 317 316 312 318 318 300 269 280 118 50 157 158 186 189 151 183 182 232 260 275 283 285 288 289 283 275 268 124 113 162 189 183 203 161 196 197 159 112 244 25 78 77 27 90 87 21 352 346 339 349 300 167 256 113 112 128 132 136 135 142 144 151 152
348 345 342 341 342 339 338 335 334 331 328 326 323 321 319 317 316 314 313 311 309 309 309 310 311 313 312 312 313 301 308 358 94 82 132 158 165 179 183 174 166 208 207 269 278 262 258 265 270 253 244 264 201 142 235 156 200 196 204 139 133 159 134 123 93 76 72 68 96 66 116 236 341 326 343 322 159 187 166 137 131 137 138 141 146 151 155 155
347 344 341 341 340 339 335 334 331 329 326 323 322 320 317 315 315 314 312 311 309 308 308 307 310 312 312 315 309 290 290 69 155 136 160 157 169 166 169 174 179 222 248 248 248 261 273 264 242 248 242 239 221 191 191 194 192 179 141 127 131 119 71 356 352 23 72 67 96 119 312 44 10 320 282 311 229 237 93 142 138 135 140 146 147 156 155 161
346 344 341 339 339 337 334 330 329 327 324 323 319 317 315 315 314 314 312 309 306 305 305 306 308 310 316 302 271 268 267 274 226 156 144 172 169 167 165 166 151 160 217 247 247 251 244 249 240 246 254 245 245 260 224 198 182 152 141 103 79 73 93 228 247 14 40 51 353 55 49 25 325 337 335 301 269 303 302 199 133 135 143 151 152 165 161 164
345 344 341 339 338 336 332 330 327 325 324 320 318 317 317 316 315 315 313 310 305 302 302 303 304 307 329 312 233 235 184 253 142 153 151 173 187 188 159 183 177 186 216 234 252 263 265 257 250 257 256 262 263 276 202 240 84 109 92 106 99 77 161 175 162 78 81 95 225 16 84 75 202 318 5 262 284 286 301 193 132 140 147 158 157 163 171 165
346 343 342 340 338 335 332 329 326 325 322 320 318 317 317 316 316 315 314 310 305 300 297 298 298 303 304 286 282 319 268 134 152 144 147 171 201 163 186 180 194 201 225 240 245 252 265 283 283 258 325 319 324 309 314 21 105 119 120 120 108 129 173 103 55 54 53 36 49 71 338 48 347 335 276 257 263 295 326 172 140 143 155 162 169 162 172 170
345 344 341 340 338 335 333 329 327 324 323 319 317 316 316 316 316 316 314 311 304 299 293 288 290 299 298 260 269 263 195 142 130 158 168 191 183 164 191 242 179 214 228 242 248 253 254 268 281 308 297 293 284 287 299 211 120 110 119 114 119 149 98 111 112 108 160 92 60 130 243 227 275 28 270 257 278 330 327 175 147 145 165 161 175 163 167 172
344 343 341 340 338 336 333 331 329 326 323 319 316 315 314 314 316 316 314 309 302 296 287 281 291 308 266 243 348 286 278 155 167 162 181 191 180 187 204 209 231 229 227 248 262 263 270 275 280 302 309 316 336 299 316 351 132 117 115 98 104 119 126 142 112 153 99 61 30 82 7 344 311 53 245 247 0 351 344 191 149 154 166 169 163 155 170 159
343 342 340 339 339 337 335 332 330 327 323 320 316 314 310 310 311 310 308 304 296 282 269 270 265 269 268 262 221 244 223 174 177 170 179 192 193 206 221 209 205 224 240 267 265 258 241 253 292 308 299 331 290 328 341 338 346 114 118 112 113 116 116 149 138 181 128 113 123 82 47 316 288 221 266 23 343 15 323 310 152 169 161 165 146 142 167 143
341 340 340 338 337 337 334 333 330 328 324 319 315 310 308 308 308 305 295 297 267 257 248 242 230 240 302 288 230 226 266 90 197 100 242 170 223 208 222 223 244 266 275 279 285 305 323 308 263 280 270 290 329 291 316 301 289 237 128 117 112 68 85 125 129 148 146 118 129 105 192 211 231 240 295 8 12 3 329 320 164 164 165 148 139 148 164 155
341 339 339 338 336 335 335 332 330 327 323 319 313 309 306 305 304 295 285 274 272 255 252 223 247 255 281 255 289 39 354 333 134 90 252 228 235 221 201 199 219 251 241 260 274 287 296 305 295 259 270 274 279 321 287 287 301 272 101 84 117 96 269 228 151 147 130 157 150 170 215 243 213 235 272 31 25 27 328 311 165 160 166 141 137 151 161 163
340 338 338 337 335 334 333 330 328 326 323 319 314 308 303 301 298 286 278 276 246 235 222 230 226 254 220 277 273 107 43 305 253 220 196 223 215 230 212 166 208 211 243 252 267 272 274 285 323 312 281 248 251 253 261 251 232 210 125 98 278 154 224 167 194 178 161 161 180 176 252 236 209 221 329 346 17 37 319 314 198 162 165 140 136 161 163 155
339 337 336 336 334 333 330 329 325 323 323 319 311 305 300 298 285 271 268 269 288 199 197 232 198 228 308 280 239 63 147 198 223 225 197 245 242 257 166 181 176 201 204 253 230 265 260 267 261 255 270 275 272 257 270 289 275 229 138 133 179 180 185 138 226 220 153 144 178 199 187 60 291 248 246 308 43 7 319 304 282 173 161 138 143 167 172 141
337 335 333 333 333 330 330 326 325 325 321 317 311 300 292 287 270 261 264 232 227 196 225 293 88 185 303 71 171 230 192 217 66 245 156 202 296 299 192 181 184 213 201 235 250 217 259 271 178 250 252 270 260 263 296 278 272 90 104 162 179 167 158 194 136 206 126 149 168 206 232 210 181 193 211 354 70 353 312 302 308 179 143 141 146 182 151 146
336 332 332 330 331 329 325 324 326 325 321 315 307 289 289 286 277 291 256 210 222 218 219 264 262 285 259 252 259 210 107 198 181 172 257 179 218 248 268 206 193 221 185 223 219 239 196 234 182 233 234 215 233 246 217 235 180 136 163 172 182 142 169 160 160 184 155 182 142 180 101 238 119 131 201 198 68 272 284 294 317 265 147 148 151 181 149 153
333 333 330 330 327 326 321 326 325 325 323 317 293 274 266 263 252 198 263 157 166 310 353 173 174 143 343 210 205 325 98 68 334 130 206 195 164 257 236 284 271 186 207 201 215 205 176 262 183 246 255 228 218 225 222 240 192 205 180 206 170 145 162 170 177 150 160 148 156 137 131 115 134 171 198 154 183 231 263 298 345 324 180 153 161 175 147 159
333 331 330 327 325 323 323 322 322 324 331 334 349 331 249 338 99 316 200 262 233 239 261 233 205 242 251 230 83 103 137 178 230 212 250 111 122 204 238 229 220 210 255 217 192 200 161 181 211 213 229 234 229 222 233 261 259 183 179 236 156 144 130 131 145 169 164 141 111 121 118 105 137 170 186 191 182 213 257 282 326 317 289 149 161 209 148 153
333 331 328 325 325 323 321 321 320 318 329 310 293 312 332 331 356 22 292 242 222 231 242 259 233 231 7 343 178 155 168 169 241 206 210 136 223 229 195 203 221 229 222 235 232 187 191 202 236 226 224 229 233 211 224 339 28 112 237 283 221 136 144 162 161 168 187 141 142 128 118 129 143 168 190 185 168 222 233 257 292 3 67 356 245 152 167 156
330 329 327 326 325 324 320 319 316 314 315 261 244 280 282 272 357 262 5 301 292 254 229 240 233 241 166 236 249 252 108 224 209 226 130 142 213 193 193 203 186 220 228 213 227 156 196 215 230 237 246 260 246 340 343 77 344 15 341 257 18 138 137 158 150 167 192 96 141 144 127 142 158 173 180 183 201 225 217 204 91 34 188 191 297 110 287 173
330 327 329 326 326 323 323 314 314 315 295 165 227 253 244 277 12 12 328 283 271 279 277 224 237 260 176 161 3 112 241 216 192 179 183 167 244 210 221 223 222 234 236 222 192 172 211 238 239 38 30 18 8 8 342 354 345 308 303 332 189 164 143 166 186 166 195 173 150 161 109 151 170 172 171 177 174 226 231 33 43 87 343 89 265 322 222 194
329 327 326 329 327 324 320 316 305 296 201 216 251 252 258 287 31 15 331 258 304 291 265 215 254 235 202 147 157 191 233 240 228 158 136 161 234 240 240 224 261 248 228 207 216 248 253 278 290 87 41 49 0 357 304 316 308 275 269 268 277 182 176 158 174 176 175 101 142 126 81 52 127 120 170 189 37 139 18 9 2 38 49 20 340 266 229 235
329 328 327 328 329 325 317 316 316 289 329 263 236 253 258 266 51 22 334 290 246 245 240 220 201 38 80 147 135 198 218 221 33 118 180 179 230 247 272 280 263 267 282 194 188 208 256 2 333 31 347 306 205 234 265 252 288 274 258 248 252 274 144 162 157 139 134 127 189 148 81 232 195 185 157 19 29 50 358 7 314 342 14 43 30 26 342 351
328 328 329 328 330 332 308 349 25 345 316 284 274 251 233 77 28 343 323 276 278 252 124 224 93 227 35 189 196 228 226 273 148 176 184 189 222 271 331 292 200 258 292 118 286 187 253 78 39 274 275 299 235 249 232 183 226 233 279 267 247 275 175 169 158 159 135 161 201 193 117 133 59 111 37 41 92 27 354 359 305 311 304 93 76 69 32 335
327 326 327 327 333 345 348 328 4 308 304 293 350 337 342 36 16 352 326 220 262 182 183 115 140 195 149 164 213 232 229 202 68 117 243 64 285 149 239 267 252 233 228 266 29 307 214 183 211 58 341 247 256 207 231 196 199 231 311 356 337 347 30 102 139 204 186 151 138 204 51 122 123 130 267 259 159 214 334 319 316 310 309 352 105 209 185 232
324 326 326 326 324 342 232 318 326 317 275 297 319 320 325 356 334 302 77 313 253 175 181 171 299 86 268 158 179 291 108 121 205 166 228 154 150 236 213 267 278 299 279 95 247 245 239 161 170 154 200 253 236 278 106 208 172 131 4 345 358 348 22 356 64 310 321 107 171 217 126 69 301 283 261 188 146 248 242 255 285 285 295 290 125 210 243 239
324 324 328 325 323 308 210 209 278 270 269 310 310 312 331 317 327 23 270 266 185 182 336 143 323 165 238 150 159 244 203 190 247 172 176 65 175 357 290 280 306 294 287 45 247 233 218 77 81 301 352 289 336 331 92 50 348 13 4 292 292 300 270 269 43 23 18 52 260 201 177 104 228 251 322 283 178 191 200 204 216 233 232 220 174 176 248 272
321 321 325 331 323 161 169 194 234 247 287 290 287 285 295 318 296 50 240 270 128 209 190 78 107 184 221 179 213 200 227 166 254 140 187 204 151 164 239 262 268 285 305 252 234 258 104 273 133 297 222 50 307 260 233 267 273 16 282 327 313 306 317 320 282 320 29 349 246 273 173 141 140 242 217 173 239 174 163 194 198 194 221 232 217 190 209 234
317 315 316 327 303 349 335 274 251 227 261 304 300 274 298 313 240 228 248 259 218 124 182 131 158 181 165 217 215 209 244 147 209 206 165 249 201 199 238 259 264 307 300 309 260 239 197 138 150 247 246 269 168 310 120 351 277 187 166 215 304 297 206 274 332 125 166 250 246 203 252 108 124 239 207 236 259 171 171 197 210 208 202 210 214 203 203 207
315 310 302 279 238 328 236 244 308 351 328 317 313 316 287 294 186 213 228 101 259 134 210 181 143 182 179 192 237 188 199 164 175 167 216 179 201 206 193 214 180 221 266 230 256 256 188 168 170 194 81 268 227 274 285 211 251 232 203 200 152 303 99 283 39 298 214 231 217 193 110 65 31 122 168 182 196 144 182 163 187 207 220 200 204 204 195 208
314 308 302 265 224 218 231 246 301 298 295 286 307 306 285 244 247 222 252 287 257 164 225 313 152 177 208 206 231 218 164 268 151 207 196 196 223 200 210 211 210 206 215 243 280 186 231 154 172 167 159 137 269 226 284 255 250 234 194 169 146 141 162 207 223 206 249 257 229 79 82 85 150 66 148 150 153 78 85 41 52 109 172 184 184 181 188 198
310 309 306 221 194 211 234 228 237 263 279 299 288 280 253 240 240 248 257 245 239 199 154 208 128 55 303 265 240 87 143 184 169 200 193 217 206 225 206 209 229 267 187 297 270 311 141 174 226 151 187 181 210 198 79 216 234 225 252 224 153 217 258 253 193 223 249 226 64 67 54 190 165 216 197 89 102 109 94 84 39 237 233 243 203 184 176 181
308 297 248 257 226 235 229 233 254 266 278 290 228 229 218 236 262 254 257 260 265 185 170 99 229 143 222 225 279 159 162 154 201 266 176 251 269 278 201 174 123 61 18 10 342 297 263 157 131 105 153 194 222 126 75 303 336 288 241 20 88 263 160 178 237 41 319 22 59 15 71 144 154 229 16 77 78 70 104 126 174 250 298 225 213 173 166 175
307 305 273 231 202 231 191 200 216 232 237 209 224 212 225 219 240 220 241 311 306 19 46 103 267 250 224 265 206 225 154 155 190 222 231 188 240 283 71 102 60 45 18 9 301 329 350 13 188 132 170 183 292 73 274 218 191 293 20 41 260 278 317 122 2 332 330 69 52 41 87 56 95 0 51 33 76 86 111 86 41 1 3 19 37 32 25 20
312 312 298 262 238 207 164 178 181 198 203 217 221 239 240 256 253 277 287 293 16 263 292 334 181 209 179 227 190 158 194 111 187 138 258 237 255 154 296 73 32 301 44 35 319 309 352 248 275 287 360 60 75 4 292 319 20 345 9 298 325 323 45 101 289 303 84 94 39 5 78 138 310 33 352 345 360 51 31 43 33 24 7 16 22 25 14 360
312 291 269 257 246 212 151 173 174 184 194 205 227 258 272 268 256 264 302 318 314 278 240 248 21 258 282 280 196 173 153 184 162 152 249 168 289 317 109 96 98 268 19 321 101 331 4 357 277 146 227 164 246 339 304 260 230 183 248 282 5 353 351 331 73 356 15 68 117 109 44 345 28 181 345 12 20 11 28 25 15 18 4 354 1 19 3 3
264 287 305 272 215 163 148 160 188 163 203 206 233 253 242 261 282 283 282 281 280 340 33 220 274 180 250 277 281 180 155 191 174 210 185 58 12 285 16 75 137 47 313 21 323 304 327 304 305 292 341 141 175 102 270 254 220 216 214 286 228 222 164 340 183 184 127 126 115 119 115 75 333 286 301 58 44 26 55 68 53 33 9 338 329 3 273 343
292 299 284 155 117 124 140 157 171 199 208 226 211 237 282 267 272 269 265 260 263 217 272 326 245 268 225 274 281 284 167 213 177 208 160 189 189 257 133 162 135 131 314 110 335 150 294 128 234 279 214 115 282 68 237 48 64 290 212 291 309 25 62 40 9 47 351 232 108 140 120 264 267 277 305 20 64 58 85 117 145 124 241 245 274 314 343 359
287 246 287 123 118 118 133 172 173 209 222 254 256 257 242 252 265 271 279 268 257 125 286 296 326 328 347 332 315 298 201 212 228 296 148 155 172 117 223 185 64 100 275 131 188 18 300 45 3 299 348 346 338 192 230 30 357 69 94 51 66 55 33 38 311 320 22 77 208 111 121 309 248 169 301 324 96 115 308 192 109 105 144 231 36 10 32 3
309 269 228 139 125 149 153 183 210 210 230 228 234 228 249 260 270 274 276 281 275 305 190 277 259 275 272 285 329 335 299 277 216 206 3 76 61 75 58 81 90 96 43 29 352 39 92 216 111 313 332 323 297 349 2 21 356 28 29 338 19 84 122 100 57 316 27 20 45 108 120 265 259 248 144 308 4 104 249 317 80 72 12 341 24 60 75 47
297 282 312 153 151 171 186 237 211 205 227 241 248 250 259 266 270 276 278 277 231 164 241 234 276 290 231 271 295 303 327 335 290 14 93 89 99 100 74 66 12 43 37 348 30 350 21 345 347 308 324 286 293 271 139 64 30 350 260 293 328 41 85 111 144 192 76 0 62 80 67 229 231 190 153 178 176 192 287 317 66 65 13 339 356 30 54 47
307 287 298 263 165 203 214 236 227 226 227 237 237 257 255 261 256 251 256 274 279 151 198 206 249 248 294 342 327 298 27 330 43 19 96 103 107 119 101 88 339 44 68 243 78 317 28 335 338 322 332 320 327 331 51 30 24 151 269 259 238 212 191 131 91 52 56 11 83 97 146 225 186 162 153 155 132 107 39 4 53 79 41 20 9 22 40 41
276 256 231 254 183 200 231 216 264 270 232 229 233 237 243 245 250 261 263 267 256 283 61 159 271 305 248 168 254 283 279 258 334 246 250 110 128 181 111 131 111 99 89 77 62 162 127 252 24 24 17 29 353 321 310 309 291 283 240 335 320 58 89 56 62 23 74 331 34 78 133 95 120 149 133 145 135 119 122 108 81 89 80 44 33 26 32 28
314 321 308 225 179 210 235 275 277 271 277 292 290 278 277 276 244 246 254 296 310 306 312 308 226 212 248 281 259 247 286 269 251 108 225 131 176 147 124 104 80 88 100 90 54 53 98 18 342 234 193 215 233 223 252 242 245 286 358 331 325 31 34 104 115 84 131 211 85 171 152 153 162 155 136 127 111 120 119 69 53 70 81 71 51 42 33 35
318 257 274 321 200 207 247 212 230 238 255 276 280 279 263 254 291 293 190 226 189 287 283 273 297 267 176 244 278 242 224 278 277 291 256 69 37 83 88 102 117 116 109 141 124 95 92 64 269 296 280 234 236 245 253 268 288 306 328 334 3 18 10 58 95 191 180 107 75 340 145 138 160 142 140 132 125 106 98 88 80 71 68 64 49 35 42 33
262 269 315 36 302 300 277 247 230 231 246 234 249 265 277 280 277 284 302 210 104 227 290 206 284 269 269 217 215 244 168 223 292 284 332 260 123 151 153 131 127 168 126 236 121 124 113 186 240 256 279 286 269 260 249 279 301 330 342 335 318 333 314 335 70 51 98 114 148 215 129 129 142 130 121 127 114 94 98 99 100 94 82 72 52 35 34 37
272 324 331 348 329 326 302 304 317 316 273 238 246 240 256 267 278 290 294 226 168 222 239 290 285 287 278 245 234 237 165 178 205 254 272 1 229 123 109 82 124 173 119 111 137 120 105 217 265 273 285 299 300 309 292 283 287 272 226 286 325 3 335 335 333 77 97 117 137 120 102 99 129 135 121 117 106 112 115 117 99 88 95 91 75 35 30 29
348 351 333 330 319 300 312 321 324 327 304 294 235 302 305 293 281 279 274 327 12 208 166 245 288 296 290 297 287 279 262 202 256 218 225 249 241 97 128 166 148 271 149 164 173 90 119 267 216 272 304 288 297 283 289 179 239 262 292 289 276 311 324 18 32 88 86 90 104 120 112 94 54 110 119 121 102 98 97 92 99 100 103 100 96 90 53 32
333 345 340 309 317 324 332 323 314 302 307 311 330 296 289 285 280 293 297 301 279 264 145 246 271 266 260 256 284 281 278 287 230 247 255 192 211 150 124 126 147 170 213 178 111 152 139 220 102 335 307 278 264 279 285 246 230 235 231 295 294 207 208 247 77 88 103 130 135 113 111 123 152 120 119 119 106 111 117 117 102 98 93 104 97 69 38 26
326 335 331 309 282 327 314 312 297 306 280 303 273 261 240 257 274 309 311 299 279 287 340 353 294 281 290 291 271 278 270 245 257 243 218 187 149 108 146 264 290 202 168 261 108 139 186 159 140 94 344 278 315 314 296 262 255 317 69 64 19 302 150 117 96 69 67 116 90 96 131 147 145 137 115 107 115 114 118 124 112 99 97 98 106 99 78 55